Regional Weather Roundup
Issued by NWS

Home | Current Version | Previous Version | Text Only | Print | Product List | Glossary Off
Versions: 1 2 3 4 5 6 7 8 9 10 11 12 13 14 15 16 17 18 19 20 21 22 23 24 25 26 27 28 29 30 31 32 33 34 35 36 37 38 39 40 41 42 43 44 45 46 47 48 49 50

000
ASUS43 KLOT 300606
RWRIL

ILLINOIS REGIONAL WEATHER ROUNDUP
NATIONAL WEATHER SERVICE CHICAGO/ROMEOVILLE IL
100 AM CDT THU OCT 30 2014

NOTE: "FAIR" INDICATES FEW OR NO CLOUDS BELOW 12,000 FEET WITH NO
SIGNIFICANT WEATHER AND/OR OBSTRUCTIONS TO VISIBILITY.

* THESE STATIONS ARE NOT UNDER NWS QUALITY CONTROL. THEY ALSO MAY NOT
  REPORT WEATHER SUCH AS PRECIPITATION OR FOG.

ILZ001-002-007-009-015-016-024-300700-
NORTHWEST ILLINOIS

CITY           SKY/WX    TMP DP  RH WIND       PRES   REMARKS
MOLINE         CLEAR     32  29  88 CALM      30.15R
6HR MIN TEMP:  32; 6HR MAX TEMP:  42;

STERLING*      CLEAR     30  27  86 CALM      30.15R
SAVANNA*       PTCLDY    32  31  96 CALM      30.14S FOG
$$

ILZ003-004-008-010-011-017-018-300700-
NORTH CENTRAL ILLINOIS

CITY           SKY/WX    TMP DP  RH WIND       PRES   REMARKS
ROCKFORD       MOCLDY    33  29  85 CALM      30.15S
6HR MIN TEMP:  32; 6HR MAX TEMP:  43;

FREEPORT*      PTCLDY    30  28  91 CALM      30.15S
ROCHELLE*      CLEAR     28  27  96 CALM      30.14S
DE KALB*       CLEAR     33  29  85 CALM      30.14S
PERU*          CLEAR     35  31  85 CALM      30.15S
$$

ILZ005-006-012>014-019>023-300700-
NORTHEAST ILLINOIS

CITY           SKY/WX    TMP DP  RH WIND       PRES   REMARKS
CHICAGO-OHARE  CLEAR     37  31  78 W5        30.13S WCI  33
6HR MIN TEMP:  36; 6HR MAX TEMP:  47;

CHICAGO-MIDWAY CLEAR     41  33  73 W3        30.14R
6HR MIN TEMP:  41; 6HR MAX TEMP:  49;

AURORA         CLEAR     31  27  85 CALM      30.15R
6HR MIN TEMP:  29; 6HR MAX TEMP:  45;

LANSING*       CLEAR     36  33  88 CALM      30.14S
JOLIET*        CLEAR     32  32  99 CALM      30.15R
WAUKEGAN       CLEAR     33  30  88 W3        30.13S
6HR MIN TEMP:  32; 6HR MAX TEMP:  40;

DUPAGE AIRPORT CLEAR     34  29  82 CALM      30.13S
6HR MIN TEMP:  34; 6HR MAX TEMP:  46;

KANKAKEE*      CLEAR     34  32  93 SW5       30.15F WCI  30
WHEELING       CLEAR     37  31  78 CALM      30.15S
6HR MIN TEMP:  35; 6HR MAX TEMP:  45;

MORRIS*        CLEAR     33  32  96 CALM      30.14S
ROMEOVILLE*    CLEAR     35  32  88 NW3       30.14S
NORTHERLY ISL    N/A     45  33  63 W5          N/A
$$

LMZ740>746-300700-
SOUTHERN LAKE MICHIGAN

STATION/POSITION SKY/WX   TEMP    WIND        PRES    VSBY  WAVE
                          AIR SEA DIR/SP/G                  HT/PER
                          (F)     (DEG/KT/KT) (MB)    (MI)  (FT/S)
SOUTHERN BUOY              47 53  310/  6/ 10 1020.4R         2/ 5
WAUKEGAN HARBOR            41     280/  6/  6   N/A
HARRISON CRIB              47     280/  6/  7   N/A
BURNHAM HARBOR             45     250/  5/  6   N/A
CALUMET HARBOR             42     220/  3/  4 1019.2S
MICHIGAN CITY              46     160/  5/  7   N/A
$$

ILZ025>027-034>036-040-047-049-050-058-095>099-300700-
WEST-CENTRAL ILLINOIS

CITY           SKY/WX    TMP DP  RH WIND       PRES   REMARKS
QUINCY         CLEAR     39  32  76 SE6       30.15S WCI  35
GALESBURG*     CLEAR     31  30  96 CALM      30.15S
MACOMB*        CLEAR     31  30  94 CALM      30.18R
JACKSONVILLE*  CLEAR     39  35  87 CALM      30.16S
PITTSFIELD*    CLEAR     35  33  92 CALM      30.16F
$$

ILZ028>032-037-038-041>044-048-051>054-059>061-300700-
CENTRAL ILLINOIS

CITY           SKY/WX    TMP DP  RH WIND       PRES   REMARKS
PONTIAC        CLEAR     31  31  97 CALM      30.16S
BLOOMINGTON    CLEAR     36  33  88 S3        30.16S
DECATUR        CLEAR     37  33  85 CALM      30.17R
PEORIA         CLEAR     37  31  78 CALM      30.15S
6HR MIN TEMP:  36; 6HR MAX TEMP:  46;

LACON*         CLEAR     32  29  88 CALM      30.15R
LINCOLN*       CLEAR     35  32  91 CALM      30.16S
SPRINGFIELD    CLEAR     35  32  88 CALM      30.17S
6HR MIN TEMP:  35; 6HR MAX TEMP:  47;

TAYLORVILLE    CLEAR     36  34  93 SE3       30.16F
$$

ILZ033-039-045-046-055>057-062-063-300700-
EAST-CENTRAL ILLINOIS

CITY           SKY/WX    TMP DP  RH WIND       PRES   REMARKS
CHAMPAIGN      CLEAR     35  31  85 CALM      30.16S
DANVILLE*      CLEAR     35  32  90 CALM      30.13S
RANTOUL*       CLEAR     36  33  89 CALM      30.15F
MATTOON        CLEAR     36  33  89 CALM      30.16R
PARIS*         CLEAR     33  32  96 CALM      30.17R
$$

ILZ079-100>102-300700-
SOUTHWEST ILLINOIS

CITY           SKY/WX    TMP DP  RH WIND       PRES   REMARKS
ALTON          CLEAR     38  35  91 CALM      30.16F
BELLEVILLE     CLEAR     38  37  93 CALM      30.16S
CAHOKIA*       CLEAR     38  37  97 CALM      30.17S
SPARTA*        CLEAR     40  37  87 CALM      30.18R
$$

ILZ064>066-069>071-074>076-080>082-084>086-088>090-092>094-300700-
SOUTH-CENTRAL ILLINOIS

CITY           SKY/WX    TMP DP  RH WIND       PRES   REMARKS
CARBONDALE     CLEAR     37  34  89 CALM      30.16F
6HR MIN TEMP:  35; 6HR MAX TEMP:  51;

CAIRO*         CLEAR     41  36  83 CALM      30.16S
EFFINGHAM*     CLEAR     37  34  89 CALM      30.17S
MARION         CLEAR     39  37  93 CALM      30.17S
MT. VERNON     CLEAR     36  30  80 CALM      30.17S
CENTRALIA*     CLEAR     37  35  93 CALM      30.16S
SALEM*         CLEAR     38  37  96 CALM      30.17S
METROPOLIS*    CLEAR     40  40 100 CALM      30.15F
$$

ILZ067-068-072-073-078-083-087-091-300700-
SOUTHEAST ILLINOIS

CITY           SKY/WX    TMP DP  RH WIND       PRES   REMARKS
LAWRENCEVILLE  CLEAR     39  31  72 CALM      30.17S
FLORA*         CLEAR     37  37  98 CALM      30.18S
FAIRFIELD*     CLEAR     40  37  87 N3        30.15F
HARRISBURG*    CLEAR     38  38  98 CALM      30.18S
ROBINSON*      CLEAR     37  37  97 CALM      30.18S
CARMI*         CLEAR     39  39 100 CALM      30.16S
$$

ABBREVIATIONS USED IN REMARKS
   TC - TEMPERATURE IN CELSIUS
  WCI - WIND CHILL INDEX
   HX - HEAT INDEX
  VSB - VISIBILITY
$$




USA.gov is the U.S. government's official web portal to all federal, state and local government web resources and services.